This is the latest recevied weather packets stored in our database for station/object DB0RV-13. If no packets are shown the sender has not sent any weather packets the latest 1 day(s).
| Time | Temp. | Humidity | Pressure | Rain* | Wind** | Luminosity | Snow |
|---|---|---|---|---|---|---|---|
| 1777983001 | 15° C | 71% | 1007.6 hPa | - | 0.89 m/s, 312° | - | - |
| 1777982702 | 14.44° C | 73% | 1007.6 hPa | - | 0.89 m/s, 25° | - | - |
| 1777982401 | 14.44° C | 73% | 1007.6 hPa | - | 1.79 m/s, 38° | - | - |
| 1777982102 | 14.44° C | 73% | 1007.8 hPa | - | 1.79 m/s, 27° | - | - |
| 1777981801 | 13.89° C | 76% | 1007.7 hPa | - | 0 m/s | - | - |
| 1777981501 | 13.89° C | 76% | 1007.8 hPa | - | 0.89 m/s, 271° | - | - |
| 1777981202 | 13.89° C | 78% | 1007.8 hPa | - | 0.89 m/s, 323° | - | - |
| 1777980902 | 13.89° C | 78% | 1007.9 hPa | - | 0.89 m/s, 330° | - | - |
| 1777980602 | 13.89° C | 79% | 1007.9 hPa | - | 0 m/s | - | - |
| 1777980301 | 13.33° C | 79% | 1008 hPa | - | 0.45 m/s, 223° | - | - |
| 1777980002 | 13.33° C | 79% | 1008.1 hPa | - | 1.34 m/s, 200° | - | - |
| 1777979701 | 13.33° C | 80% | 1008.1 hPa | - | 1.79 m/s, 230° | - | - |
| 1777979402 | 13.33° C | 78% | 1008.1 hPa | - | 1.34 m/s, 239° | - | - |
| 1777979101 | 13.33° C | 78% | 1008.2 hPa | - | 0.45 m/s, 210° | - | - |
| 1777978802 | 13.33° C | 80% | 1008.1 hPa | - | 2.24 m/s, 203° | - | - |
| 1777978502 | 13.33° C | 81% | 1008.2 hPa | - | 1.34 m/s, 207° | - | - |
| 1777978202 | 12.78° C | 80% | 1008.1 hPa | - | 0.89 m/s, 183° | - | - |
| 1777977902 | 13.33° C | 79% | 1008.2 hPa | - | 0.89 m/s, 185° | - | - |
| 1777977601 | 13.33° C | 78% | 1008 hPa | - | 2.24 m/s, 202° | - | - |
| 1777977302 | 12.78° C | 78% | 1008.1 hPa | - | 1.34 m/s, 176° | - | - |
| 1777977001 | 13.33° C | 78% | 1008 hPa | - | 1.79 m/s, 194° | - | - |
| 1777976702 | 13.33° C | 77% | 1008.2 hPa | - | 2.24 m/s, 189° | - | - |
| 1777976401 | 13.33° C | 77% | 1008.2 hPa | - | 2.24 m/s, 215° | - | - |
| 1777976102 | 12.78° C | 76% | 1008.1 hPa | - | 1.79 m/s, 202° | - | - |
| 1777975802 | 13.33° C | 76% | 1008 hPa | - | 2.24 m/s, 215° | - | - |
* Rain since midnight (hover to see other rain measurements)
** Current wind speed in m/s (hover to see current wind gust speed)